,,PA_Meas_PMT16A,,PR_Meas_QMR101_102,,RH_Meas_QMH101,,SR_Meas_QMS101,,TA_Meas_QMH101,,GenWind,,GenWind,
time,status,PA,status,PR,status,RH,status,SR,status,TA,status,DirAvg,status,SpdAvg,
2015-05-29, 00:00:04,VALID,919.332,VALID,0,VALID,98.9672,VALID,0,VALID,19.1193,VALID,214,VALID,0,
2015-05-29, 00:01:04,VALID,919.326,VALID,0,VALID,98.9901,VALID,0,VALID,19.1583,VALID,182,VALID,0,
2015-05-29, 00:02:04,VALID,919.352,VALID,0.2,VALID,98.9748,VALID,0,VALID,19.1388,VALID,179,VALID,0,
2015-05-29, 00:03:04,VALID,919.403,VALID,0,VALID,98.9977,VALID,0,VALID,19.1178,VALID,177,VALID,0,
2015-05-29, 00:04:04,VALID,919.403,VALID,0,VALID,98.9748,VALID,0,VALID,19.1388,VALID,177,VALID,0,
2015-05-29, 00:05:04,VALID,919.367,VALID,0,VALID,98.9824,VALID,0,VALID,19.1193,VALID,179,VALID,0,
2015-05-29, 00:06:04,VALID,919.331,VALID,0,VALID,98.9748,VALID,0,VALID,19.1373,VALID,181,VALID,0,
2015-05-29, 00:07:04,VALID,919.311,VALID,0,VALID,98.9748,VALID,0,VALID,19.1178,VALID,191,VALID,0,
2015-05-29, 00:08:04,VALID,919.258,VALID,0.2,VALID,98.9824,VALID,0,VALID,19.1373,VALID,185,VALID,0,
2015-05-29, 00:09:05,VALID,919.245,VALID,0,VALID,98.9901,VALID,0,VALID,19.1583,VALID,179,VALID,1.41641,
2015-05-29, 00:10:05,VALID,919.156,VALID,0,VALID,98.9824,VALID,0,VALID,19.1388,VALID,174,VALID,1.36758,
2015-05-29, 00:11:05,VALID,919.121,VALID,0,VALID,98.9824,VALID,0,VALID,19.1388,VALID,195,VALID,1.10664,
2015-05-29, 00:12:05,VALID,919.076,VALID,0,VALID,98.9672,VALID,0,VALID,19.1583,VALID,176,VALID,0.792188,
2015-05-29, 00:13:05,VALID,919.014,VALID,0,VALID,98.9596,VALID,0,VALID,19.1583,VALID,179,VALID,0,
2015-05-29, 00:14:05,VALID,918.943,VALID,0,VALID,98.9672,VALID,0,VALID,19.1583,VALID,184,VALID,0,
2015-05-29, 00:15:05,VALID,918.903,VALID,0.2,VALID,98.9596,VALID,0,VALID,19.1388,VALID,184,VALID,0,
2015-05-29, 00:16:05,VALID,918.902,VALID,0,VALID,98.9748,VALID,0,VALID,19.0983,VALID,167,VALID,0,
2015-05-29, 00:17:05,VALID,918.852,VALID,0,VALID,98.9824,VALID,0,VALID,19.0998,VALID,151,VALID,0,
2015-05-29, 00:18:05,VALID,918.876,VALID,0,VALID,99.0053,VALID,0,VALID,19.0593,VALID,134,VALID,0,
2015-05-29, 00:19:05,VALID,918.852,VALID,0,VALID,98.9824,VALID,0,VALID,19.0608,VALID,127,VALID,0,
2015-05-29, 00:20:05,VALID,918.875,VALID,0.2,VALID,98.9748,VALID,0,VALID,19.0608,VALID,127,VALID,0,
2015-05-29, 00:21:05,VALID,918.841,VALID,0,VALID,98.9596,VALID,0,VALID,19.0998,VALID,119,VALID,0,
2015-05-29, 00:22:05,VALID,918.831,VALID,0,VALID,98.9748,VALID,0,VALID,19.0803,VALID,112,VALID,0,
2015-05-29, 00:23:05,VALID,918.797,VALID,0,VALID,98.9748,VALID,0,VALID,19.0803,VALID,112,VALID,0,
2015-05-29, 00:24:05,VALID,918.778,VALID,0,VALID,98.9596,VALID,0,VALID,19.0998,VALID,112,VALID,0,
2015-05-29, 00:25:05,VALID,918.765,VALID,0,VALID,98.9748,VALID,0,VALID,19.0608,VALID,112,VALID,0,
2015-05-29, 00:26:05,VALID,918.734,VALID,0,VALID,98.9824,VALID,0,VALID,19.0413,VALID,112,VALID,0,
2015-05-29, 00:27:05,VALID,918.723,VALID,0,VALID,99.0053,VALID,0,VALID,19.0413,VALID,112,VALID,0,
2015-05-29, 00:28:05,VALID,918.705,VALID,0,VALID,98.9748,VALID,0,VALID,19.0413,VALID,112,VALID,0,
2015-05-29, 00:29:05,VALID,918.698,VALID,0,VALID,98.9748,VALID,0,VALID,19.0413,VALID,138,VALID,0,
2015-05-29, 00:30:05,VALID,918.652,VALID,0,VALID,98.9901,VALID,0,VALID,19.0413,VALID,151,VALID,0,
2015-05-29, 00:31:05,VALID,918.672,VALID,0,VALID,98.9901,VALID,0,VALID,19.0398,VALID,177,VALID,0,
2015-05-29, 00:32:05,VALID,918.678,VALID,0,VALID,98.9824,VALID,0,VALID,19.0608,VALID,180,VALID,0,
2015-05-29, 00:33:05,VALID,918.686,VALID,0,VALID,98.9672,VALID,0,VALID,19.0608,VALID,180,VALID,0,
2015-05-29, 00:34:05,VALID,918.701,VALID,0,VALID,98.9672,VALID,0,VALID,19.0608,VALID,180,VALID,0,
2015-05-29, 00:35:05,VALID,918.69,VALID,0.2,VALID,98.9824,VALID,0,VALID,19.0803,VALID,169,VALID,0,
2015-05-29, 00:36:05,VALID,918.71,VALID,0,VALID,98.9596,VALID,0,VALID,19.0803,VALID,170,VALID,0,
2015-05-29, 00:37:05,VALID,918.726,VALID,0,VALID,98.9596,VALID,0,VALID,19.0608,VALID,164,VALID,0,
2015-05-29, 00:38:05,VALID,918.698,VALID,0,VALID,98.9901,VALID,0,VALID,19.0608,VALID,165,VALID,0,
2015-05-29, 00:39:05,VALID,918.663,VALID,0,VALID,98.9824,VALID,0,VALID,19.0608,VALID,148,VALID,0,
2015-05-29, 00:40:05,VALID,918.634,VALID,0,VALID,98.9672,VALID,0,VALID,19.0398,VALID,171,VALID,0,
2015-05-29, 00:41:05,VALID,918.656,VALID,0.2,VALID,98.9748,VALID,0,VALID,19.0998,VALID,158,VALID,0,
2015-05-29, 00:42:05,VALID,918.606,VALID,0,VALID,98.9672,VALID,0.107441,VALID,19.0788,VALID,152,VALID,0,
2015-05-29, 00:43:05,VALID,918.586,VALID,0,VALID,98.9672,VALID,0,VALID,19.0788,VALID,158,VALID,0,
2015-05-29, 00:44:05,VALID,918.584,VALID,0,VALID,98.9519,VALID,0.107441,VALID,19.0788,VALID,154,VALID,0,
2015-05-29, 00:45:05,VALID,918.568,VALID,0,VALID,98.9748,VALID,0.107441,VALID,19.0593,VALID,146,VALID,0,
2015-05-29, 00:46:05,VALID,918.527,VALID,0,VALID,98.9519,VALID,0,VALID,19.0593,VALID,167,VALID,1.87656,
2015-05-29, 00:47:05,VALID,918.53,VALID,0.2,VALID,98.9596,VALID,0.107441,VALID,19.0593,VALID,176,VALID,0.888672,
2015-05-29, 00:48:05,VALID,918.496,VALID,0,VALID,98.9672,VALID,0,VALID,19.0593,VALID,185,VALID,0.942969,
2015-05-29, 00:49:05,VALID,918.473,VALID,0,VALID,98.9824,VALID,0.107441,VALID,19.0593,VALID,169,VALID,0.257031,
2015-05-29, 00:50:05,VALID,918.443,VALID,0,VALID,98.9596,VALID,0.107441,VALID,19.0593,VALID,165,VALID,1.18984,
2015-05-29, 00:51:05,VALID,918.42,VALID,0,VALID,98.9519,VALID,0,VALID,19.0593,VALID,149,VALID,0.598047,
2015-05-29, 00:52:05,VALID,918.397,VALID,0,VALID,98.9748,VALID,0,VALID,19.0398,VALID,149,VALID,1.33711,
